Weather History for KHST - October, 2012

Change the Weather History Date:

Wednesday, October 10, 2012

  Actual Average Record
Temperature  
Mean Temperature 81 °F -  
Max Temperature 87 °F 87 °F 94 °F (1941)
Min Temperature 75 °F 69 °F 62 °F (1953)
Cooling Degree Days 16    
Growing Degree Days 31 (Base 50)    
Moisture  
Dew Point 74 °F    
Average Humidity 82    
Maximum Humidity 95    
Minimum Humidity 66    
Precipitation  
Precipitation 0.06 in - - ()
Sea Level Pressure  
Sea Level Pressure 30.03 in    
Wind  
Wind Speed 8 mph (NE)    
Max Wind Speed 16 mph    
Max Gust Speed 21 mph    
Visibility 10 miles    
Events Rain    
Averages and records for this station are not official NWS values.
T = Trace of Precipitation, MM = Missing Value Source: NWS Daily Summary

Daily Weather History Graph

Daily Weather History Graph

Search for Another Location

Airport or City:

Trip Planner

Search our weather history database for the weather conditions in past years. The results will help you decide how hot, cold, wet, or windy it might be!

Date:

Astronomy

Oct. 10, 2012 Rise Set
Actual Time 7:17 AM EDT 6:58 PM EDT
Civil Twilight 6:54 AM EDT 7:21 PM EDT
Nautical Twilight 6:28 AM EDT 7:48 PM EDT
Astronomical Twilight 6:01 AM EDT 8:14 PM EDT
Moon 2:22 AM EDT (10/10) 3:33 PM EDT (10/10)
Length of Visible Light 12h 26m
Length of Day
11h 40m
Waning Crescent, 27% of the Moon is Illuminated
Oct 10
Waning Crescent
Oct 15
New
Oct 21
First Quarter
Oct 29
Full
Nov 6
Last Quarter

Hourly Weather History & Observations

Time (EDT) Temp. Heat Index Dew Point Humidity Pressure Visibility Wind Dir Wind Speed Gust Speed Precip Events Conditions
12:15 AM 75.2 °F - 71.6 °F 89% 30.03 in 7.0 mi ENE 11.5 mph - N/A Rain Heavy Rain
12:32 AM 75.2 °F - 71.6 °F 89% 30.03 in 10.0 mi East 3.5 mph - N/A   Clear
12:55 AM 75.7 °F - 71.6 °F 87% 30.03 in 10.0 mi NE 5.8 mph - 0.04 in   Partly Cloudy
1:55 AM 76.8 °F - 74.1 °F 91% 30.02 in 10.0 mi NE 5.8 mph - N/A   Partly Cloudy
2:55 AM 75.9 °F - 73.0 °F 91% 30.01 in 10.0 mi Calm Calm - N/A   Clear
3:55 AM 76.3 °F - 73.4 °F 91% 30.00 in 10.0 mi NNW 4.6 mph - N/A   Clear
4:55 AM 76.1 °F - 73.9 °F 93% 30.00 in 10.0 mi Calm Calm - N/A   Clear
5:55 AM 76.5 °F - 74.7 °F 94% 30.01 in 6.0 mi North 3.5 mph - N/A   Clear
6:12 AM 77.0 °F - 75.2 °F 94% 30.01 in 7.0 mi North 4.6 mph - N/A   Clear
6:55 AM 75.9 °F - 74.5 °F 95% 30.02 in 10.0 mi Calm Calm - N/A   Clear
7:55 AM 76.6 °F - 75.2 °F 95% 30.04 in 10.0 mi North 3.5 mph - N/A   Clear
8:55 AM 79.7 °F - 76.5 °F 90% 30.05 in 10.0 mi NNE 5.8 mph - N/A   Clear
9:55 AM 83.5 °F 91.6 °F 75.6 °F 77% 30.06 in 10.0 mi NNE 8.1 mph - N/A   Clear
10:55 AM 84.7 °F 91.7 °F 73.8 °F 69% 30.07 in 10.0 mi NE 8.1 mph - N/A   Clear
12:48 PM 87.8 °F 97.6 °F 75.2 °F 66% 30.06 in 10.0 mi East 11.5 mph - N/A Rain Rain
12:49 PM 86.0 °F 96.9 °F 77.0 °F 74% 30.06 in 10.0 mi East 11.5 mph - N/A Rain Rain
12:55 PM 86.7 °F 97.3 °F 76.5 °F 71% 30.06 in 10.0 mi East 11.5 mph - 0.00 in Rain Rain
1:06 PM 86.0 °F 95.1 °F 75.2 °F 70% 30.04 in 10.0 mi NE 11.5 mph - N/A   Clear
1:23 PM 86.0 °F 95.1 °F 75.2 °F 70% 30.05 in 10.0 mi NE 12.7 mph - N/A   Light Drizzle
1:55 PM 84.9 °F 92.9 °F 74.7 °F 71% 30.04 in 10.0 mi NE 10.4 mph - 0.00 in   Light Drizzle
2:55 PM 86.0 °F 95.5 °F 75.6 °F 71% 30.02 in 10.0 mi NE 11.5 mph - 0.00 in   Clear
3:06 PM 82.4 °F 89.5 °F 75.2 °F 79% 30.01 in 10.0 mi NNE 9.2 mph - N/A   Light Drizzle
3:38 PM 82.4 °F 89.5 °F 75.2 °F 79% 30.01 in 10.0 mi NE 9.2 mph - N/A   Clear
3:55 PM 83.8 °F 92.8 °F 76.5 °F 78% 30.01 in 10.0 mi NE 11.5 mph - 0.00 in   Clear
4:55 PM 83.7 °F 90.7 °F 74.3 °F 73% 30.00 in 10.0 mi NE 12.7 mph - N/A   Clear
4:58 PM 82.4 °F 89.5 °F 75.2 °F 79% 30.00 in 10.0 mi NNE 16.1 mph 20.7 mph N/A Rain Light Rain
5:21 PM 80.6 °F 86.2 °F 75.2 °F 84% 30.00 in 10.0 mi NE 9.2 mph - N/A   Partly Cloudy
5:55 PM 80.8 °F 86.7 °F 75.4 °F 84% 30.00 in 10.0 mi ENE 5.8 mph - 0.02 in   Clear
6:55 PM 80.2 °F 85.0 °F 74.1 °F 82% 30.02 in 10.0 mi NE 15.0 mph - N/A   Partly Cloudy
7:03 PM 78.8 °F - 71.6 °F 78% 30.03 in 10.0 mi NE 13.8 mph - N/A   Light Drizzle
7:12 PM 78.8 °F - 73.4 °F 83% 30.03 in 10.0 mi ENE 11.5 mph - N/A   Scattered Clouds
7:55 PM 79.0 °F - 74.5 °F 86% 30.04 in 10.0 mi NNE 3.5 mph - 0.00 in   Partly Cloudy
8:55 PM 80.4 °F 85.0 °F 73.2 °F 79% 30.05 in 10.0 mi NE 9.2 mph - N/A   Partly Cloudy
9:55 PM 80.4 °F 85.0 °F 73.4 °F 79% 30.05 in 10.0 mi NE 13.8 mph - N/A   Partly Cloudy